EW8073 Weather Reports


time (UTC)temp
C
wind
direction
speed
KPH
gust
KPH
rain 1hr
cm
rain 24hr
cm
rain mn
cm
humidity
%
barometer
mb
20260901184642 26 193 0.0 3.2 0.00 0.20 0.00 46 1017.8
20260901184140 26 193 0.0 0.0 0.00 0.20 0.00 48 1017.8
20260901183640 25 186 0.0 0.0 0.00 0.20 0.00 48 1018.0
20260901183140 25 229 0.0 0.0 0.00 0.20 0.00 51 1018.0
20260901182638 25 229 0.0 0.0 0.00 0.20 0.00 49 1018.0
20260901182141 25 228 0.0 0.0 0.00 0.20 0.00 51 1018.1
20260901181635 25 228 0.0 0.0 0.00 0.20 0.00 53 1018.2
20260901181128 25 229 0.0 0.0 0.00 0.20 0.00 53 1018.3
20260901180116 24 231 0.0 0.0 0.00 0.20 0.00 55 1018.6
20260901175612 24 231 0.0 0.0 0.00 0.20 0.00 56 1018.6
20260901175105 23 225 0.0 0.0 0.00 0.20 0.00 58 1018.6
20260901174053 23 225 0.0 0.0 0.00 0.20 0.00 60 1018.7
20260901173546 23 225 0.0 0.0 0.00 0.20 0.00 63 1018.8
20260901173040 23 225 0.0 0.0 0.00 0.20 0.00 63 1018.8
20260901172028 22 235 0.0 0.0 0.00 0.20 0.00 66 1018.8
20260901171522 22 235 0.0 1.6 0.00 0.20 0.00 67 1018.9
20260901171018 22 235 0.0 1.6 0.00 0.20 0.00 67 1019.0
20260901170512 21 237 0.0 1.6 0.00 0.20 0.00 70 1019.0
20260901170005 21 237 0.0 3.2 0.00 0.20 0.00 72 1018.9
20260901165458 21 237 0.0 3.2 0.00 0.20 0.00 72 1019.0
20260901164446 20 249 0.0 1.6 0.00 0.20 0.00 76 1019.2
20260901163941 20 249 0.0 1.6 0.00 0.20 0.00 76 1019.2
20260901163435 20 249 0.0 4.8 0.00 0.20 0.00 77 1019.2
20260901162929 20 249 0.0 4.8 0.00 0.20 0.00 78 1019.2
20260901161916 20 250 0.0 0.0 0.00 0.20 0.00 79 1019.0
20260901160905 20 250 0.0 0.0 0.00 0.20 0.00 81 1019.2
20260901160359 20 250 0.0 0.0 0.00 0.20 0.00 81 1019.2
20260901155852 19 250 0.0 0.0 0.00 0.20 0.00 82 1019.2
20260901155346 19 250 0.0 1.6 0.00 0.20 0.00 82 1019.2
20260901154842 19 250 0.0 4.8 0.00 0.20 0.00 82 1019.2
20260901154334 18 250 0.0 4.8 0.00 0.20 0.00 82 1019.0
20260901153830 18 247 0.0 0.0 0.00 0.20 0.00 83 1019.2
20260901152310 18 247 0.0 0.0 0.00 0.20 0.00 84 1019.0
20260901151804 18 247 0.0 0.0 0.00 0.20 0.00 84 1018.9
20260901151258 17 247 0.0 0.0 0.00 0.20 0.00 85 1018.9
20260901150753 17 247 0.0 0.0 0.00 0.20 0.00 84 1018.9
20260901150246 17 247 0.0 0.0 0.00 0.20 0.00 84 1018.9
20260901145741 17 247 0.0 0.0 0.00 0.20 0.00 85 1018.9
20260901145234 17 247 0.0 0.0 0.00 0.20 0.00 85 1018.9
20260901144222 17 247 0.0 0.0 0.00 0.20 0.00 85 1018.9
20260901143210 17 247 0.0 1.6 0.00 0.20 0.00 85 1018.9
20260901142704 16 247 0.0 3.2 0.00 0.20 0.00 85 1018.9
20260901141653 16 246 0.0 1.6 0.00 0.20 0.00 85 1018.9
20260901141146 16 246 0.0 1.6 0.00 0.20 0.00 86 1018.9
20260901140641 16 246 0.0 0.0 0.00 0.20 0.00 86 1018.8
20260901140135 16 246 0.0 0.0 0.00 0.20 0.00 86 1018.9
20260901135629 16 246 0.0 0.0 0.00 0.20 0.00 86 1018.9
20260901135124 16 246 0.0 0.0 0.00 0.20 0.00 86 1018.7
20260901134616 16 246 0.0 0.0 0.00 0.20 0.00 86 1018.8
20260901134111 16 246 0.0 0.0 0.00 0.20 0.00 86 1018.8
20260901133604 16 246 0.0 0.0 0.00 0.20 0.00 86 1018.9
20260901133059 16 246 0.0 0.0 0.00 0.20 0.00 86 1018.8
20260901132553 16 246 0.0 0.0 0.00 0.20 0.00 86 1018.8
20260901132046 16 246 0.0 0.0 0.00 0.20 0.00 86 1018.8
20260901131540 16 246 0.0 0.0 0.00 0.20 0.00 86 1018.6
20260901131035 16 246 0.0 0.0 0.00 0.20 0.00 86 1018.5
20260901130528 16 246 0.0 0.0 0.00 0.20 0.00 86 1018.3
20260901130024 16 246 0.0 0.0 0.00 0.20 0.00 86 1018.3
20260901125516 16 246 0.0 0.0 0.00 0.20 0.00 86 1018.2
20260901125011 16 246 0.0 0.0 0.00 0.20 0.00 86 1018.1
20260901124514 16 246 0.0 0.0 0.00 0.20 0.00 86 1018.1
20260901123958 16 246 0.0 0.0 0.00 0.20 0.00 86 1018.0
20260901123454 16 246 0.0 0.0 0.00 0.20 0.00 86 1017.8
20260901122948 16 246 0.0 0.0 0.00 0.20 0.00 86 1017.8
20260901122446 16 246 0.0 0.0 0.00 0.20 0.00 86 1017.8
20260901121445 16 246 0.0 0.0 0.00 0.20 0.00 86 1017.8
20260901120941 16 246 0.0 0.0 0.00 0.20 0.00 87 1017.8
20260901115941 16 246 0.0 0.0 0.00 0.20 0.00 87 1017.9
20260901114444 16 246 0.0 0.0 0.00 0.20 0.00 87 1017.6
20260901113943 16 246 0.0 0.0 0.00 0.20 0.00 87 1017.6
20260901113444 16 246 0.0 0.0 0.00 0.20 0.00 87 1017.8
20260901112943 16 246 0.0 0.0 0.00 0.20 0.00 87 1017.8
20260901112444 16 247 0.0 3.2 0.00 0.20 0.00 87 1017.6
20260901111941 16 247 0.0 3.2 0.00 0.20 0.00 87 1017.8
20260901111443 16 246 0.0 3.2 0.00 0.20 0.00 87 1017.6
20260901110942 16 245 0.0 0.0 0.00 0.20 0.00 87 1017.8
20260901110443 16 245 0.0 0.0 0.00 0.20 0.00 87 1017.9
20260901105942 16 245 0.0 0.0 0.00 0.20 0.00 87 1017.9
20260901105443 16 245 0.0 1.6 0.00 0.20 0.00 87 1017.8
20260901104942 16 245 0.0 1.6 0.00 0.20 0.00 87 1017.9
20260901104443 16 245 0.0 1.6 0.00 0.20 0.00 87 1018.0
20260901103941 16 245 0.0 1.6 0.00 0.20 0.00 87 1018.0
20260901103443 16 249 0.0 0.0 0.00 0.20 0.00 87 1018.2
20260901102447 16 249 0.0 1.6 0.00 0.20 0.00 87 1018.5
20260901101944 16 249 0.0 0.0 0.00 0.20 0.00 87 1018.3
20260901101444 16 249 0.0 0.0 0.00 0.20 0.00 87 1018.5
20260901100944 16 249 0.0 0.0 0.00 0.20 0.00 87 1018.5
20260901100444 16 249 0.0 1.6 0.00 0.20 0.00 87 1018.6
20260901095936 16 249 0.0 1.6 0.00 0.20 0.00 87 1018.8
20260901095433 16 249 0.0 1.6 0.00 0.20 0.00 87 1018.9
20260901094931 16 249 0.0 3.2 0.00 0.20 0.00 87 1018.8
20260901094430 16 249 0.0 3.2 0.00 0.20 0.00 87 1018.8
20260901093927 16 249 0.0 1.6 0.00 0.20 0.00 87 1018.9
20260901093426 16 249 0.0 1.6 0.00 0.20 0.00 87 1018.8
20260901092925 16 249 0.0 1.6 0.00 0.20 0.00 87 1018.9
20260901091927 16 249 0.0 1.6 0.00 0.20 0.00 87 1018.9
20260901091425 17 249 0.0 1.6 0.00 0.20 0.00 87 1018.9
20260901090924 17 249 0.0 1.6 0.00 0.20 0.00 87 1018.9
20260901090422 17 249 0.0 1.6 0.00 0.20 0.00 87 1018.9
20260901085921 17 249 0.0 0.0 0.00 0.20 0.00 87 1018.9
20260901085424 17 249 0.0 0.0 0.00 0.20 0.00 87 1018.9
20260901084920 17 249 0.0 0.0 0.00 0.20 0.00 87 1018.9
20260901084419 17 249 0.0 0.0 0.00 0.20 0.00 87 1019.0
20260901083919 17 249 0.0 0.0 0.00 0.20 0.00 87 1019.0
20260901083418 17 249 0.0 0.0 0.00 0.20 0.00 87 1019.0
20260901082917 17 249 0.0 0.0 0.00 0.20 0.00 87 1019.2
20260901081915 17 249 0.0 0.0 0.00 0.20 0.00 87 1019.3
20260901081410 17 249 0.0 0.0 0.00 0.20 0.00 87 1019.3
20260901080903 17 249 0.0 0.0 0.00 0.20 0.00 87 1019.4
20260901080357 17 249 0.0 0.0 0.00 0.20 0.00 87 1019.3
20260901075850 17 249 0.0 0.0 0.00 0.20 0.00 87 1019.4
20260901075346 17 249 0.0 0.0 0.00 0.20 0.00 87 1019.4
20260901074838 17 249 0.0 0.0 0.00 0.20 0.00 87 1019.4
20260901074333 17 249 0.0 0.0 0.00 0.20 0.00 87 1019.4
20260901073826 17 249 0.0 0.0 0.00 0.20 0.00 87 1019.6
20260901073320 17 249 0.0 0.0 0.00 0.20 0.00 87 1019.7
20260901072310 17 249 0.0 0.0 0.00 0.20 0.00 86 1019.7
20260901071803 17 249 0.0 0.0 0.00 0.20 0.00 86 1020.2
20260901071257 17 249 0.0 0.0 0.00 0.20 0.00 86 1020.2
20260901070245 17 249 0.0 0.0 0.00 0.20 0.00 86 1020.1
20260901065739 17 249 0.0 0.0 0.00 0.20 0.00 86 1020.0
20260901065232 17 249 0.0 0.0 0.00 0.20 0.00 86 1020.1
20260901064728 17 249 0.0 0.0 0.00 0.20 0.00 86 1020.1
20260901063209 17 249 0.0 0.0 0.00 0.20 0.00 86 1020.0
20260901062703 17 249 0.0 0.0 0.00 0.20 0.00 86 1020.3
20260901062157 17 249 0.0 0.0 0.00 0.20 0.00 85 1020.2
20260901061145 17 249 0.0 0.0 0.00 0.20 0.00 85 1020.1
20260901060639 17 249 0.0 0.0 0.00 0.20 0.00 85 1020.1
20260901060134 17 249 0.0 0.0 0.00 0.20 0.00 85 1020.0
20260901055629 17 249 0.0 0.0 0.00 0.20 0.20 85 1019.7
20260901055130 17 249 0.0 0.0 0.00 0.20 0.20 84 1019.5
20260901054630 17 249 0.0 0.0 0.00 0.20 0.20 84 1019.4
20260901054129 17 249 0.0 0.0 0.00 0.20 0.20 84 1019.6
20260901053629 17 249 0.0 0.0 0.00 0.20 0.20 84 1019.9
20260901053129 17 249 0.0 0.0 0.00 0.20 0.20 84 1019.6
20260901052629 17 249 0.0 0.0 0.00 0.20 0.20 83 1019.7
20260901052129 17 249 0.0 0.0 0.00 0.20 0.20 83 1019.7
20260901051123 17 249 0.0 0.0 0.00 0.20 0.20 83 1019.6
20260901050617 17 249 0.0 0.0 0.00 0.20 0.20 83 1019.5
20260901050112 17 249 0.0 0.0 0.00 0.20 0.20 83 1019.5
20260901045612 17 249 0.0 0.0 0.00 0.20 0.20 83 1019.6
20260901045109 17 249 0.0 1.6 0.00 0.20 0.20 83 1019.5
20260901044609 17 249 0.0 1.6 0.00 0.20 0.20 82 1019.5
20260901044110 17 249 0.0 1.6 0.00 0.20 0.20 82 1019.5
20260901043610 17 249 0.0 1.6 0.03 0.20 0.20 82 1019.4
20260901043108 17 249 0.0 1.6 0.03 0.20 0.20 82 1019.5
20260901042607 17 98 0.0 0.0 0.03 0.20 0.20 81 1019.3
20260901042104 17 98 0.0 0.0 0.05 0.20 0.20 81 1019.2
20260901041604 17 98 0.0 3.2 0.05 0.20 0.20 81 1019.0
20260901041103 18 98 0.0 3.2 0.08 0.20 0.20 81 1018.9
20260901040603 18 136 0.0 1.6 0.08 0.20 0.20 80 1019.2
20260901035600 18 236 0.0 0.0 0.08 0.20 0.20 79 1019.7
20260901035057 18 236 0.0 3.2 0.08 0.20 0.20 79 1019.9
20260901034557 18 236 0.0 3.2 0.08 0.20 0.20 79 1020.1
20260901034057 18 236 0.0 1.6 0.08 0.20 0.20 78 1020.3
20260901033555 18 236 1.6 6.4 0.05 0.18 0.18 78 1020.4
20260901033053 18 235 1.6 6.4 0.05 0.18 0.18 77 1020.2
20260901032555 18 343 1.6 6.4 0.05 0.18 0.18 77 1019.7
20260901032049 18 253 3.2 12.9 0.03 0.15 0.15 76 1020.6
20260901031543 19 246 4.8 12.9 0.03 0.15 0.15 75 1020.8
20260901030532 19 242 6.4 17.7 0.03 0.13 0.13 73 1021.0
20260901030025 19 257 6.4 17.7 0.08 0.13 0.13 72 1021.0
20260901025519 19 243 4.8 17.7 0.08 0.13 0.13 72 1020.9
20260901025013 19 229 3.2 17.7 0.08 0.13 0.13 72 1020.6
20260901024507 19 234 3.2 17.7 0.10 0.13 0.13 72 1020.2
20260901023455 20 243 1.6 11.3 0.10 0.13 0.13 73 1019.7
20260901022949 20 338 0.0 0.0 0.10 0.13 0.13 71 1019.2
20260901022444 20 338 0.0 1.6 0.13 0.13 0.13 71 1018.8
20260901021938 20 338 0.0 0.0 0.13 0.13 0.13 70 1018.6
20260901020925 21 337 0.0 0.0 0.13 0.13 0.13 67 1018.5
20260901020422 21 338 0.0 0.0 0.08 0.08 0.08 66 1018.3
20260901015915 21 338 0.0 0.0 0.05 0.05 0.05 64 1018.5
20260901015408 21 338 0.0 0.0 0.05 0.05 0.05 63 1018.5
20260901014903 21 338 0.0 0.0 0.05 0.05 0.05 62 1018.2
20260901014355 22 338 0.0 6.4 0.03 0.03 0.03 60 1018.1
20260901013849 22 348 1.6 8.0 0.03 0.03 0.03 59 1018.0
20260901013343 23 337 1.6 16.1 0.03 0.03 0.03 56 1018.0
20260901012838 23 199 1.6 16.1 0.00 0.00 0.00 53 1018.1
20260901012333 25 348 0.0 4.8 0.00 0.00 0.00 51 1018.1
20260901011826 26 318 0.0 4.8 0.00 0.00 0.00 47 1017.9
20260901011320 27 332 0.0 3.2 0.00 0.00 0.00 40 1017.9
20260901010814 27 38 0.0 1.6 0.00 0.00 0.00 31 1017.9
20260901010310 27 123 0.0 0.0 0.00 0.00 0.00 31 1017.2
20260901005801 27 177 0.0 0.0 0.00 0.00 0.00 30 1017.1
20260901005255 27 177 0.0 0.0 0.00 0.00 0.00 31 1016.9
20260901004750 27 177 0.0 0.0 0.00 0.00 0.00 30 1016.9
20260901004243 27 187 0.0 0.0 0.00 0.00 0.00 31 1016.9
20260901003737 27 123 0.0 0.0 0.00 0.00 0.00 32 1017.1
20260901002725 28 84 0.0 0.0 0.00 0.00 0.00 32 1017.1
20260901002220 28 125 0.0 0.0 0.00 0.00 0.00 31 1017.1
20260901001714 28 125 0.0 0.0 0.00 0.00 0.00 31 1016.9
20260901001207 28 125 0.0 0.0 0.00 0.00 0.00 31 1017.1
20260901000703 28 125 0.0 1.6 0.00 0.00 0.00 30 1017.2
20260901000157 28 144 0.0 1.6 0.00 0.00 0.00 30 1017.1
20260831235651 29 134 0.0 0.0 0.00 0.00 0.00 30 1017.1
20260831235144 29 114 0.0 0.0 0.00 0.00 0.00 30 1017.1
20260831234637 29 114 0.0 0.0 0.00 0.00 0.00 30 1017.2
20260831234132 29 111 0.0 0.0 0.00 0.00 0.00 29 1017.2
20260831233626 30 98 0.0 0.0 0.00 0.00 0.00 31 1017.2
20260831233119 29 99 0.0 0.0 0.00 0.00 0.00 31 1017.1
20260831232613 29 99 0.0 0.0 0.00 0.00 0.00 31 1017.1
20260831232107 30 100 0.0 1.6 0.00 0.00 0.00 30 1017.1
20260831231601 30 173 0.0 1.6 0.00 0.00 0.00 30 1017.1
20260831231057 30 152 0.0 0.0 0.00 0.00 0.00 31 1017.1
20260831230550 30 152 0.0 0.0 0.00 0.00 0.00 31 1017.2
20260831230043 30 161 0.0 1.6 0.00 0.00 0.00 32 1017.2
20260831225538 30 159 0.0 1.6 0.00 0.00 0.00 32 1017.3
20260831225031 30 123 0.0 1.6 0.00 0.00 0.00 31 1017.4
20260831224525 30 144 0.0 1.6 0.00 0.00 0.00 30 1017.3
20260831224020 29 134 0.0 0.0 0.00 0.00 0.00 32 1017.4
20260831223513 30 135 0.0 0.0 0.00 0.00 0.00 33 1017.4
20260831223007 30 134 0.0 0.0 0.00 0.00 0.00 35 1017.5
20260831222505 30 132 0.0 0.0 0.00 0.03 0.00 32 1017.5
20260831222005 29 146 0.0 1.6 0.00 0.03 0.00 34 1017.5
20260831221501 29 146 0.0 1.6 0.00 0.03 0.00 30 1017.5
20260831221001 29 154 0.0 1.6 0.00 0.03 0.00 32 1017.6
20260831215959 29 76 0.0 1.6 0.00 0.03 0.00 33 1017.6
20260831214956 30 103 0.0 0.0 0.00 0.03 0.00 31 1017.8
20260831214455 30 101 0.0 0.0 0.00 0.03 0.00 32 1017.9
20260831213954 29 342 0.0 0.0 0.00 0.03 0.00 33 1017.8
20260831213454 28 342 0.0 0.0 0.00 0.03 0.00 34 1017.8
20260831212455 28 307 0.0 0.0 0.00 0.03 0.00 36 1017.9
20260831211950 28 257 0.0 3.2 0.00 0.03 0.00 34 1018.0
20260831211451 29 211 0.0 3.2 0.00 0.03 0.00 38 1018.1
20260831210951 28 170 0.0 1.6 0.00 0.03 0.00 40 1018.2
20260831210450 28 170 0.0 1.6 0.00 0.03 0.00 37 1018.3
20260831205951 28 31 0.0 0.0 0.00 0.03 0.00 39 1018.3
20260831204450 27 138 0.0 0.0 0.00 0.03 0.00 38 1018.7
20260831203951 27 138 0.0 0.0 0.00 0.05 0.00 38 1018.7
20260831203450 27 138 0.0 0.0 0.00 0.05 0.00 39 1018.8
20260831202950 27 139 0.0 0.0 0.00 0.05 0.00 38 1018.9
20260831202451 27 238 0.0 0.0 0.00 0.05 0.00 37 1019.0
20260831201950 27 238 0.0 0.0 0.00 0.05 0.00 38 1019.0
20260831200951 27 259 0.0 0.0 0.00 0.05 0.00 38 1019.2
20260831200450 27 259 0.0 0.0 0.00 0.05 0.00 38 1019.3
20260831195447 27 240 0.0 0.0 0.00 0.05 0.00 38 1019.3
20260831194941 27 244 0.0 0.0 0.00 0.05 0.00 39 1019.3
20260831194434 27 244 0.0 0.0 0.00 0.05 0.00 38 1019.4
20260831193927 27 244 0.0 0.0 0.00 0.05 0.00 36 1019.4
20260831193422 27 244 0.0 0.0 0.00 0.05 0.00 37 1019.5
20260831192916 27 244 0.0 0.0 0.00 0.05 0.00 40 1019.6
20260831192410 27 244 0.0 0.0 0.00 0.05 0.00 40 1019.6
20260831191904 27 244 0.0 0.0 0.00 0.05 0.00 39 1019.7
20260831190852 27 245 0.0 0.0 0.00 0.05 0.00 41 1020.0
20260831190346 27 245 0.0 0.0 0.00 0.05 0.00 40 1020.0
20260831185840 26 245 0.0 0.0 0.00 0.05 0.00 40 1020.1